Location: Basse Occidentale du Courleau
(48.3833°N, 4.8333°W)
Time: 09:35:55
(UTC+00:00)

Atlas Centaur 2 - Pass Details

Date: 05 July 2020
Orbit: 459 x 1310 km, 30.4° (Epoch: 08 August)

Event Time Altitude Azimuth Distance (km) Brightness Sun altitude
Rises 22:13:28 0° 239° (WSW) 3,431 5.4 -13.2°
Reaches altitude 10° 22:17:00 10° 217° (SW) 2,673 4.6 -13.5°
Maximum altitude 22:20:37 15° 184° (S) 2,463 4.1 -13.8°
Enters shadow 22:21:23 15° 176° (S) 2,511 4.1 -13.8°
